Time,TemperatureF,DewpointF,PressureIn,WindDirection,WindDirectionDegrees,WindSpeedMPH,WindSpeedGustMPH,Humidity,HourlyPrecipIn,Conditions,Clouds,dailyrainin,SoftwareType,DateUTC
2013-03-05 00:14:00,41.4,26.0,29.89,ESE,121,1.0,2.0,54,0.00,,,0.00,weatherlink.com 1.10,2013-03-05 08:14:00,
2013-03-05 00:29:00,41.7,26.0,29.89,SE,133,2.0,2.0,54,0.00,,,0.00,weatherlink.com 1.10,2013-03-05 08:29:00,
2013-03-05 00:44:00,41.6,26.0,29.90,SE,138,3.0,4.0,54,0.00,,,0.00,weatherlink.com 1.10,2013-03-05 08:44:00,
2013-03-05 00:59:00,42.0,26.0,29.90,SE,146,1.0,6.0,53,0.00,,,0.00,weatherlink.com 1.10,2013-03-05 08:59:00,
2013-03-05 01:14:00,42.2,26.0,29.90,SSE,154,2.0,5.0,53,0.00,,,0.00,weatherlink.com 1.10,2013-03-05 09:14:00,
2013-03-05 01:29:00,41.9,26.0,29.90,ESE,115,2.0,3.0,54,0.00,,,0.00,weatherlink.com 1.10,2013-03-05 09:29:00,
2013-03-05 01:44:00,42.0,26.0,29.89,SE,127,2.0,5.0,54,0.00,,,0.00,weatherlink.com 1.10,2013-03-05 09:44:00,
2013-03-05 02:00:00,41.6,27.0,29.89,SE,143,3.0,5.0,56,0.00,,,0.00,weatherlink.com 1.10,2013-03-05 10:00:00,
2013-03-05 02:15:00,41.2,27.0,29.89,SE,139,2.0,4.0,58,0.00,,,0.00,weatherlink.com 1.10,2013-03-05 10:15:00,
2013-03-05 02:30:00,40.1,28.0,29.87,SSW,205,0.0,2.0,62,0.00,,,0.00,weatherlink.com 1.10,2013-03-05 10:30:00,
2013-03-05 02:45:00,40.2,27.0,29.87,NNE,16,0.0,2.0,60,0.00,,,0.00,weatherlink.com 1.10,2013-03-05 10:45:00,
2013-03-05 03:00:00,40.1,27.0,29.86,SW,228,2.0,2.0,61,0.00,,,0.00,weatherlink.com 1.10,2013-03-05 11:00:00,
2013-03-05 03:15:00,40.4,28.0,29.86,ESE,120,0.0,5.0,62,0.00,,,0.00,weatherlink.com 1.10,2013-03-05 11:15:00,
2013-03-05 03:30:00,40.1,29.0,29.85,NNE,23,2.0,3.0,64,0.00,,,0.00,weatherlink.com 1.10,2013-03-05 11:30:00,
2013-03-05 03:45:00,43.3,27.0,29.82,ESE,111,9.0,11.0,53,0.00,,,0.00,weatherlink.com 1.10,2013-03-05 11:45:00,
2013-03-05 04:00:00,44.9,29.0,29.84,WSW,239,6.0,11.0,53,0.00,,,0.00,weatherlink.com 1.10,2013-03-05 12:00:00,
2013-03-05 04:15:00,41.8,29.0,29.82,ENE,72,0.0,3.0,60,0.00,,,0.00,weatherlink.com 1.10,2013-03-05 12:15:00,
2013-03-05 04:30:00,40.7,30.0,29.82,West,259,0.0,2.0,67,0.00,,,0.00,weatherlink.com 1.10,2013-03-05 12:30:00,
2013-03-05 04:45:00,41.2,29.0,29.81,North,354,1.0,8.0,63,0.00,,,0.00,weatherlink.com 1.10,2013-03-05 12:45:00,
2013-03-05 05:00:00,40.6,29.0,29.82,SE,145,1.0,9.0,64,0.00,,,0.00,weatherlink.com 1.10,2013-03-05 13:00:00,
2013-03-05 05:15:00,41.4,29.0,29.82,ESE,112,0.0,3.0,61,0.00,,,0.00,weatherlink.com 1.10,2013-03-05 13:15:00,
2013-03-05 05:30:00,41.1,30.0,29.81,South,169,4.0,4.0,65,0.00,,,0.00,weatherlink.com 1.10,2013-03-05 13:30:00,
2013-03-05 05:45:00,42.0,28.0,29.81,SE,134,3.0,5.0,59,0.00,,,0.00,weatherlink.com 1.10,2013-03-05 13:45:00,
2013-03-05 06:00:00,42.1,28.0,29.82,SE,138,2.0,4.0,58,0.00,,,0.00,weatherlink.com 1.10,2013-03-05 14:00:00,
2013-03-05 06:15:00,41.5,30.0,29.81,NE,37,0.0,3.0,64,0.00,,,0.00,weatherlink.com 1.10,2013-03-05 14:15:00,
2013-03-05 06:30:00,41.3,28.0,29.81,ESE,115,2.0,3.0,60,0.00,,,0.00,weatherlink.com 1.10,2013-03-05 14:30:00,
2013-03-05 06:45:00,42.2,28.0,29.82,ESE,111,0.0,2.0,58,0.00,,,0.00,weatherlink.com 1.10,2013-03-05 14:45:00,
2013-03-05 07:00:00,41.8,32.0,29.83,ENE,57,1.0,3.0,67,0.00,,,0.00,weatherlink.com 1.10,2013-03-05 15:00:00,
2013-03-05 07:15:00,39.5,34.0,29.83,NE,46,4.0,6.0,81,0.02,,,0.02,weatherlink.com 1.10,2013-03-05 15:15:00,
2013-03-05 07:30:00,39.1,35.0,29.83,ENE,65,2.0,4.0,84,0.02,,,0.02,weatherlink.com 1.10,2013-03-05 15:30:00,
2013-03-05 07:45:00,39.1,34.0,29.83,NE,44,0.0,3.0,82,0.02,,,0.02,weatherlink.com 1.10,2013-03-05 15:45:00,
2013-03-05 08:00:00,39.6,35.0,29.83,NE,44,2.0,3.0,82,0.02,,,0.02,weatherlink.com 1.10,2013-03-05 16:00:00,
2013-03-05 08:15:00,40.3,36.0,29.84,ENE,71,1.0,2.0,83,0.00,,,0.02,weatherlink.com 1.10,2013-03-05 16:15:00,
2013-03-05 08:30:00,40.2,36.0,29.84,NE,53,1.0,2.0,85,0.01,,,0.03,weatherlink.com 1.10,2013-03-05 16:30:00,
2013-03-05 08:45:00,41.5,36.0,29.85,ENE,70,2.0,5.0,82,0.01,,,0.03,weatherlink.com 1.10,2013-03-05 16:45:00,
2013-03-05 09:00:00,41.7,37.0,29.85,ENE,62,3.0,4.0,83,0.02,,,0.04,weatherlink.com 1.10,2013-03-05 17:00:00,
2013-03-05 09:15:00,41.5,38.0,29.84,ENE,75,4.0,5.0,88,0.02,,,0.04,weatherlink.com 1.10,2013-03-05 17:15:00,
2013-03-05 09:30:00,41.6,38.0,29.84,ENE,63,2.0,3.0,86,0.01,,,0.04,weatherlink.com 1.10,2013-03-05 17:30:00,
2013-03-05 09:45:00,41.3,37.0,29.85,ESE,105,3.0,8.0,85,0.02,,,0.05,weatherlink.com 1.10,2013-03-05 17:45:00,
2013-03-05 10:00:00,40.7,38.0,29.84,SE,132,0.0,7.0,88,0.03,,,0.07,weatherlink.com 1.10,2013-03-05 18:00:00,
2013-03-05 10:15:00,40.3,37.0,29.84,ENE,77,6.0,7.0,89,0.04,,,0.08,weatherlink.com 1.10,2013-03-05 18:15:00,
2013-03-05 10:30:00,40.0,37.0,29.84,ESE,115,4.0,10.0,90,0.05,,,0.09,weatherlink.com 1.10,2013-03-05 18:30:00,
2013-03-05 10:45:00,40.1,38.0,29.83,ESE,107,3.0,7.0,91,0.05,,,0.10,weatherlink.com 1.10,2013-03-05 18:45:00,
2013-03-05 11:01:00,40.4,38.0,29.83,SSE,157,2.0,7.0,91,0.03,,,0.10,weatherlink.com 1.10,2013-03-05 19:01:00,
2013-03-05 11:16:00,40.8,39.0,29.82,SE,139,2.0,6.0,92,0.02,,,0.10,weatherlink.com 1.10,2013-03-05 19:16:00,
2013-03-05 11:31:00,41.2,39.0,29.81,SE,146,3.0,8.0,91,0.02,,,0.11,weatherlink.com 1.10,2013-03-05 19:31:00,
2013-03-05 11:46:00,41.5,39.0,29.82,SSE,156,3.0,6.0,91,0.01,,,0.11,weatherlink.com 1.10,2013-03-05 19:46:00,
2013-03-05 12:01:00,41.9,40.0,29.82,South,191,1.0,3.0,91,0.01,,,0.11,weatherlink.com 1.10,2013-03-05 20:01:00,
2013-03-05 12:16:00,41.5,39.0,29.82,SSE,158,4.0,6.0,90,0.01,,,0.11,weatherlink.com 1.10,2013-03-05 20:16:00,
2013-03-05 12:31:00,41.4,39.0,29.81,SE,126,3.0,4.0,92,0.00,,,0.11,weatherlink.com 1.10,2013-03-05 20:31:00,
2013-03-05 12:46:00,41.4,39.0,29.80,SSE,153,1.0,5.0,92,0.00,,,0.11,weatherlink.com 1.10,2013-03-05 20:46:00,
2013-03-05 13:01:00,42.1,40.0,29.79,South,191,1.0,5.0,92,0.00,,,0.11,weatherlink.com 1.10,2013-03-05 21:01:00,
2013-03-05 13:16:00,42.4,40.0,29.79,SSE,165,3.0,5.0,90,0.00,,,0.11,weatherlink.com 1.10,2013-03-05 21:16:00,
2013-03-05 13:31:00,42.2,40.0,29.79,SSE,153,3.0,5.0,90,0.00,,,0.11,weatherlink.com 1.10,2013-03-05 21:31:00,
2013-03-05 13:46:00,42.0,40.0,29.79,East,100,2.0,5.0,91,0.00,,,0.11,weatherlink.com 1.10,2013-03-05 21:46:00,
2013-03-05 14:01:00,42.1,40.0,29.79,SW,214,0.0,3.0,91,0.00,,,0.11,weatherlink.com 1.10,2013-03-05 22:01:00,
2013-03-05 14:16:00,42.4,40.0,29.78,SSW,200,0.0,3.0,91,0.00,,,0.11,weatherlink.com 1.10,2013-03-05 22:16:00,
2013-03-05 14:31:00,42.7,41.0,29.79,SSE,156,1.0,3.0,92,0.00,,,0.11,weatherlink.com 1.10,2013-03-05 22:31:00,
2013-03-05 14:46:00,42.5,40.0,29.78,SSE,165,0.0,3.0,92,0.00,,,0.11,weatherlink.com 1.10,2013-03-05 22:46:00,
2013-03-05 15:01:00,42.7,41.0,29.78,SSE,147,0.0,1.0,93,0.00,,,0.11,weatherlink.com 1.10,2013-03-05 23:01:00,
2013-03-05 15:16:00,42.8,41.0,29.77,SSW,203,1.0,1.0,94,0.00,,,0.11,weatherlink.com 1.10,2013-03-05 23:16:00,
2013-03-05 15:31:00,42.2,40.0,29.78,SSW,200,0.0,1.0,93,0.00,,,0.11,weatherlink.com 1.10,2013-03-05 23:31:00,
2013-03-05 15:46:00,42.0,40.0,29.77,SE,132,0.0,1.0,94,0.00,,,0.11,weatherlink.com 1.10,2013-03-05 23:46:00,
2013-03-05 16:01:00,42.1,41.0,29.76,SSE,159,0.0,0.0,94,0.01,,,0.12,weatherlink.com 1.10,2013-03-06 00:01:00,
2013-03-05 16:16:00,42.2,41.0,29.76,SSE,166,0.0,0.0,95,0.01,,,0.12,weatherlink.com 1.10,2013-03-06 00:16:00,
2013-03-05 16:31:00,42.4,41.0,29.76,SSE,166,0.0,1.0,95,0.01,,,0.12,weatherlink.com 1.10,2013-03-06 00:31:00,
2013-03-05 16:46:00,42.0,41.0,29.76,SSE,151,0.0,1.0,95,0.01,,,0.12,weatherlink.com 1.10,2013-03-06 00:46:00,
2013-03-05 17:01:00,41.9,41.0,29.76,South,188,0.0,1.0,95,0.00,,,0.12,weatherlink.com 1.10,2013-03-06 01:01:00,
2013-03-05 17:16:00,41.8,41.0,29.76,South,188,0.0,0.0,95,0.01,,,0.13,weatherlink.com 1.10,2013-03-06 01:16:00,
2013-03-05 17:31:00,41.6,40.0,29.75,SSE,148,0.0,1.0,95,0.01,,,0.13,weatherlink.com 1.10,2013-03-06 01:31:00,
2013-03-05 17:46:00,41.5,40.0,29.76,SSE,153,0.0,1.0,95,0.01,,,0.13,weatherlink.com 1.10,2013-03-06 01:46:00,
2013-03-05 18:01:00,41.3,40.0,29.76,SE,141,1.0,1.0,96,0.02,,,0.14,weatherlink.com 1.10,2013-03-06 02:01:00,
2013-03-05 18:16:00,41.2,40.0,29.76,SSE,152,1.0,2.0,96,0.02,,,0.15,weatherlink.com 1.10,2013-03-06 02:16:00,
2013-03-05 18:31:00,41.1,40.0,29.77,SSE,153,1.0,5.0,96,0.04,,,0.17,weatherlink.com 1.10,2013-03-06 02:31:00,
2013-03-05 18:46:00,41.0,40.0,29.76,SSW,207,1.0,4.0,96,0.06,,,0.19,weatherlink.com 1.10,2013-03-06 02:46:00,
2013-03-05 19:01:00,40.5,40.0,29.75,SSW,198,0.0,7.0,96,0.07,,,0.21,weatherlink.com 1.10,2013-03-06 03:01:00,
2013-03-05 19:16:00,40.2,39.0,29.75,East,81,3.0,6.0,96,0.07,,,0.22,weatherlink.com 1.10,2013-03-06 03:16:00,
2013-03-05 19:31:00,40.3,39.0,29.74,ESE,121,0.0,7.0,95,0.05,,,0.22,weatherlink.com 1.10,2013-03-06 03:31:00,
2013-03-05 19:46:00,40.3,39.0,29.74,SSW,205,1.0,7.0,95,0.04,,,0.23,weatherlink.com 1.10,2013-03-06 03:46:00,
2013-03-05 20:01:00,40.4,39.0,29.73,ENE,58,2.0,10.0,94,0.02,,,0.23,weatherlink.com 1.10,2013-03-06 04:01:00,
2013-03-05 20:16:00,40.3,39.0,29.74,SSE,153,3.0,9.0,94,0.01,,,0.23,weatherlink.com 1.10,2013-03-06 04:16:00,
2013-03-05 20:31:00,40.4,39.0,29.73,SW,214,2.0,9.0,93,0.01,,,0.23,weatherlink.com 1.10,2013-03-06 04:31:00,
2013-03-05 20:46:00,40.4,39.0,29.72,SW,217,3.0,7.0,93,0.00,,,0.23,weatherlink.com 1.10,2013-03-06 04:46:00,
2013-03-05 21:01:00,40.4,38.0,29.73,SE,125,0.0,7.0,92,0.00,,,0.23,weatherlink.com 1.10,2013-03-06 05:01:00,
2013-03-05 21:16:00,40.2,38.0,29.72,East,96,1.0,5.0,93,0.00,,,0.23,weatherlink.com 1.10,2013-03-06 05:16:00,
2013-03-05 21:31:00,40.3,39.0,29.72,SSW,195,0.0,6.0,93,0.01,,,0.24,weatherlink.com 1.10,2013-03-06 05:31:00,
2013-03-05 21:46:00,40.2,38.0,29.71,East,83,3.0,4.0,93,0.01,,,0.24,weatherlink.com 1.10,2013-03-06 05:46:00,
2013-03-05 22:01:00,39.9,38.0,29.70,SSW,210,0.0,5.0,93,0.01,,,0.24,weatherlink.com 1.10,2013-03-06 06:01:00,
2013-03-05 22:16:00,40.2,38.0,29.70,SW,222,0.0,7.0,92,0.01,,,0.24,weatherlink.com 1.10,2013-03-06 06:16:00,
2013-03-05 22:31:00,40.7,38.0,29.69,North,9,0.0,8.0,90,0.00,,,0.24,weatherlink.com 1.10,2013-03-06 06:31:00,
2013-03-05 22:46:00,41.2,38.0,29.69,SE,135,0.0,4.0,88,0.00,,,0.24,weatherlink.com 1.10,2013-03-06 06:46:00,
2013-03-05 23:01:00,41.4,38.0,29.68,West,276,1.0,5.0,87,0.00,,,0.24,weatherlink.com 1.10,2013-03-06 07:01:00,
2013-03-05 23:16:00,40.5,38.0,29.67,WSW,249,0.0,2.0,91,0.00,,,0.24,weatherlink.com 1.10,2013-03-06 07:16:00,
2013-03-05 23:31:00,39.9,38.0,29.67,WNW,301,0.0,1.0,93,0.00,,,0.24,weatherlink.com 1.10,2013-03-06 07:31:00,
2013-03-05 23:47:00,39.7,38.0,29.66,NE,39,0.0,3.0,93,0.00,,,0.24,weatherlink.com 1.10,2013-03-06 07:47:00,